| time (UTC) | temp F | wind direction | speed knots | gust knots | rain 1hr in | rain 24hr in | rain mn in | humidity % | barometer mb |
| 20260507132328 | 80 | 135 | 5.2 | 5.2 | 0.00 | 0.01 | 0.01 | 30 | |
| 20260507131828 | 82 | 66 | 1.7 | 6.1 | 0.00 | 0.01 | 0.01 | 30 | |
| 20260507131328 | 82 | 147 | 5.2 | 6.1 | 0.00 | 0.01 | 0.01 | 34 | |
| 20260507130828 | 80 | 118 | 4.3 | 4.3 | 0.00 | 0.01 | 0.01 | 34 | |
| 20260507130328 | 77 | 284 | 0.0 | 3.5 | 0.00 | 0.01 | 0.01 | 36 | |
| 20260507125828 | 78 | 309 | 2.6 | 4.3 | 0.00 | 0.01 | 0.01 | 33 | |
| 20260507125422 | 80 | 60 | 0.9 | 5.2 | 0.00 | 0.01 | 0.01 | 29 | |
| 20260507125328 | 80 | 60 | 0.9 | 5.2 | 0.00 | 0.01 | 0.01 | 29 | |
| 20260507124828 | 82 | 15 | 0.0 | 4.3 | 0.00 | 0.01 | 0.01 | 30 | |
| 20260507124506 | 83 | 165 | 2.6 | 4.3 | 0.00 | 0.01 | 0.01 | 31 | |
| 20260507124328 | 83 | 165 | 2.6 | 4.3 | 0.00 | 0.01 | 0.01 | 31 | |
| 20260507123828 | 82 | 142 | 2.6 | 6.1 | 0.00 | 0.01 | 0.01 | 30 | |
| 20260507123328 | 82 | 56 | 4.3 | 8.7 | 0.00 | 0.01 | 0.01 | 31 | |
| 20260507122828 | 84 | 87 | 1.7 | 6.1 | 0.00 | 0.01 | 0.01 | 30 | |
| 20260507122328 | 82 | 189 | 5.2 | 5.2 | 0.00 | 0.01 | 0.01 | 33 | |
| 20260507121828 | 81 | 64 | 1.7 | 5.2 | 0.00 | 0.01 | 0.01 | 32 | |
| 20260507121328 | 80 | 54 | 0.9 | 2.6 | 0.00 | 0.01 | 0.01 | 37 | |
| 20260507120828 | 80 | 14 | 0.0 | 3.5 | 0.00 | 0.01 | 0.01 | 32 | |
| 20260507120328 | 80 | 39 | 0.0 | 4.3 | 0.00 | 0.01 | 0.01 | 30 | |
| 20260507115828 | 82 | 67 | 2.6 | 5.2 | 0.00 | 0.01 | 0.01 | 34 | |
| 20260507115328 | 80 | 82 | 0.9 | 6.1 | 0.00 | 0.01 | 0.01 | 34 | |
| 20260507114830 | 81 | 68 | 2.6 | 7.0 | 0.00 | 0.01 | 0.01 | 33 | |
| 20260507114828 | 81 | 68 | 2.6 | 7.0 | 0.00 | 0.01 | 0.01 | 33 | |
| 20260507114328 | 80 | 354 | 1.7 | 5.2 | 0.00 | 0.01 | 0.01 | 33 | |
| 20260507113828 | 79 | 32 | 0.0 | 4.3 | 0.00 | 0.02 | 0.01 | 33 | |
| 20260507113329 | 80 | 74 | 0.9 | 3.5 | 0.00 | 0.02 | 0.01 | 36 | |
| 20260507112828 | 79 | 338 | 3.5 | 5.2 | 0.00 | 0.02 | 0.01 | 38 | |
| 20260507112328 | 80 | 351 | 2.6 | 3.5 | 0.00 | 0.02 | 0.01 | 36 | |
| 20260507111828 | 82 | 330 | 0.9 | 3.5 | 0.00 | 0.02 | 0.01 | 34 | |
| 20260507111328 | 82 | 338 | 0.9 | 5.2 | 0.00 | 0.02 | 0.01 | 36 | |
| 20260507110828 | 82 | 226 | 3.5 | 4.3 | 0.00 | 0.02 | 0.01 | 40 | |
| 20260507110328 | 79 | 303 | 0.0 | 2.6 | 0.00 | 0.02 | 0.01 | 46 | |
| 20260507105828 | 76 | 43 | 0.0 | 1.7 | 0.00 | 0.02 | 0.01 | 44 | |
| 20260507105328 | 73 | 330 | 0.0 | 2.6 | 0.00 | 0.02 | 0.01 | 47 | |
| 20260507104828 | 73 | 227 | 0.0 | 1.7 | 0.00 | 0.02 | 0.01 | 44 | |
| 20260507104328 | 74 | 97 | 1.7 | 3.5 | 0.00 | 0.02 | 0.01 | 40 | |
| 20260507103828 | 76 | 80 | 0.9 | 4.3 | 0.00 | 0.02 | 0.01 | 39 | |
| 20260507103328 | 76 | 99 | 2.6 | 6.1 | 0.00 | 0.02 | 0.01 | 39 | |
| 20260507102829 | 76 | 175 | 0.0 | 5.2 | 0.00 | 0.02 | 0.01 | 41 | |
| 20260507102329 | 76 | 232 | 0.0 | 3.5 | 0.00 | 0.02 | 0.01 | 45 | |
| 20260507101829 | 75 | 355 | 1.7 | 3.5 | 0.00 | 0.02 | 0.01 | 45 | |
| 20260507101329 | 73 | 63 | 0.0 | 3.5 | 0.00 | 0.02 | 0.01 | 44 | |
| 20260507100829 | 73 | 347 | 0.9 | 2.6 | 0.00 | 0.02 | 0.01 | 49 | |
| 20260507100329 | 72 | 167 | 0.9 | 2.6 | 0.00 | 0.02 | 0.01 | 48 | |
| 20260507095829 | 70 | 73 | 0.0 | 5.2 | 0.00 | 0.02 | 0.01 | 49 | |
| 20260507095329 | 70 | 108 | 3.5 | 3.5 | 0.00 | 0.02 | 0.01 | 50 | |
| 20260507094829 | 69 | 54 | 0.9 | 5.2 | 0.00 | 0.02 | 0.01 | 49 | |
| 20260507094329 | 69 | 45 | 0.0 | 5.2 | 0.00 | 0.02 | 0.01 | 50 | |
| 20260507093829 | 68 | 81 | 2.6 | 5.2 | 0.00 | 0.02 | 0.01 | 51 | |
| 20260507093329 | 67 | 258 | 0.0 | 4.3 | 0.00 | 0.02 | 0.01 | 56 | |
| 20260507092829 | 66 | 116 | 0.0 | 3.5 | 0.00 | 0.02 | 0.01 | 55 | |
| 20260507092329 | 66 | 144 | 3.5 | 3.5 | 0.00 | 0.02 | 0.01 | 54 | |
| 20260507091829 | 66 | 104 | 1.7 | 4.3 | 0.00 | 0.02 | 0.01 | 55 | |
| 20260507091329 | 65 | 160 | 2.6 | 3.5 | 0.00 | 0.02 | 0.01 | 57 | |
| 20260507090829 | 64 | 59 | 0.9 | 3.5 | 0.00 | 0.02 | 0.01 | 58 | |
| 20260507090329 | 64 | 127 | 2.6 | 3.5 | 0.00 | 0.02 | 0.01 | 57 | |
| 20260507085829 | 63 | 170 | 2.6 | 3.5 | 0.00 | 0.02 | 0.01 | 59 | |
| 20260507085329 | 62 | 158 | 3.5 | 4.3 | 0.00 | 0.02 | 0.01 | 59 | |
| 20260507084829 | 62 | 104 | 2.6 | 3.5 | 0.00 | 0.02 | 0.01 | 60 | |
| 20260507084329 | 63 | 59 | 0.0 | 4.3 | 0.00 | 0.02 | 0.01 | 61 | |
| 20260507083829 | 61 | 26 | 0.0 | 5.2 | 0.00 | 0.02 | 0.01 | 62 | |
| 20260507083329 | 61 | 331 | 0.0 | 3.5 | 0.00 | 0.02 | 0.01 | 64 | |
| 20260507082829 | 60 | 331 | 0.0 | 4.3 | 0.00 | 0.02 | 0.01 | 65 | |
| 20260507082329 | 60 | 78 | 2.6 | 4.3 | 0.00 | 0.02 | 0.01 | 65 | |
| 20260507081829 | 60 | 90 | 0.0 | 3.5 | 0.00 | 0.02 | 0.01 | 67 | |
| 20260507081329 | 59 | 40 | 0.0 | 2.6 | 0.00 | 0.02 | 0.01 | 68 | |
| 20260507080829 | 59 | 22 | 0.0 | 5.2 | 0.00 | 0.02 | 0.01 | 68 | |
| 20260507080329 | 59 | 73 | 0.9 | 4.3 | 0.00 | 0.02 | 0.01 | 69 | |
| 20260507075829 | 58 | 337 | 0.0 | 2.6 | 0.00 | 0.02 | 0.01 | 71 | |
| 20260507075329 | 58 | 343 | 2.6 | 3.5 | 0.00 | 0.02 | 0.01 | 70 | |
| 20260507074829 | 58 | 60 | 0.0 | 2.6 | 0.00 | 0.02 | 0.01 | 70 | |
| 20260507074329 | 57 | 30 | 0.0 | 2.6 | 0.00 | 0.02 | 0.01 | 70 | |
| 20260507073829 | 56 | 120 | 0.9 | 3.5 | 0.00 | 0.02 | 0.01 | 71 | |
| 20260507073329 | 56 | 109 | 2.6 | 2.6 | 0.00 | 0.02 | 0.01 | 73 | |
| 20260507072829 | 56 | 106 | 0.0 | 1.7 | 0.00 | 0.02 | 0.01 | 73 | |
| 20260507072329 | 55 | 26 | 0.0 | 3.5 | 0.00 | 0.02 | 0.01 | 74 | |
| 20260507071829 | 55 | 88 | 3.5 | 3.5 | 0.00 | 0.02 | 0.01 | 75 | |
| 20260507071329 | 54 | 330 | 0.0 | 2.6 | 0.00 | 0.02 | 0.01 | 76 | |
| 20260507070829 | 54 | 11 | 0.0 | 0.9 | 0.00 | 0.02 | 0.01 | 76 | |
| 20260507070329 | 53 | 11 | 0.0 | 2.6 | 0.00 | 0.02 | 0.01 | 77 | |
| 20260507065829 | 52 | 94 | 2.6 | 2.6 | 0.00 | 0.02 | 0.01 | 77 | |
| 20260507065329 | 52 | 90 | 2.6 | 5.2 | 0.00 | 0.02 | 0.01 | 77 | |
| 20260507064829 | 52 | 94 | 3.5 | 3.5 | 0.00 | 0.02 | 0.01 | 78 | |
| 20260507064329 | 52 | 102 | 1.7 | 4.3 | 0.00 | 0.02 | 0.01 | 78 | |
| 20260507063829 | 52 | 75 | 0.9 | 5.2 | 0.00 | 0.02 | 0.01 | 79 | |
| 20260507063329 | 52 | 82 | 3.5 | 6.1 | 0.00 | 0.02 | 0.01 | 80 | |
| 20260507062829 | 51 | 192 | 0.0 | 3.5 | 0.00 | 0.02 | 0.01 | 80 | |
| 20260507062329 | 50 | 94 | 0.9 | 3.5 | 0.00 | 0.02 | 0.01 | 80 | |
| 20260507061829 | 50 | 111 | 0.9 | 3.5 | 0.00 | 0.02 | 0.01 | 81 | |
| 20260507061329 | 49 | 109 | 1.7 | 2.6 | 0.00 | 0.02 | 0.01 | 81 | |
| 20260507060829 | 49 | 14 | 0.0 | 4.3 | 0.00 | 0.02 | 0.01 | 82 | |
| 20260507060329 | 48 | 50 | 0.0 | 3.5 | 0.00 | 0.02 | 0.01 | 82 | |
| 20260507055829 | 49 | 82 | 0.9 | 2.6 | 0.00 | 0.02 | 0.01 | 83 | |
| 20260507055329 | 48 | 39 | 0.0 | 2.6 | 0.00 | 0.02 | 0.01 | 84 | |
| 20260507054829 | 48 | 68 | 0.0 | 0.0 | 0.00 | 0.02 | 0.01 | 84 | |
| 20260507054329 | 48 | 68 | 0.0 | 0.0 | 0.00 | 0.02 | 0.01 | 84 | |
| 20260507053829 | 47 | 68 | 0.0 | 0.0 | 0.00 | 0.02 | 0.01 | 84 | |
| 20260507053329 | 47 | 68 | 0.0 | 0.0 | 0.00 | 0.02 | 0.01 | 84 | |
| 20260507052829 | 47 | 68 | 0.0 | 0.0 | 0.00 | 0.02 | 0.01 | 84 | |
| 20260507052329 | 46 | 68 | 0.0 | 0.0 | 0.00 | 0.02 | 0.01 | 85 | |
| 20260507051829 | 46 | 11 | 0.0 | 1.7 | 0.00 | 0.02 | 0.01 | 85 | |
| 20260507051329 | 46 | 82 | 0.0 | 0.0 | 0.00 | 0.02 | 0.01 | 85 | |
| 20260507050829 | 46 | 82 | 0.0 | 0.0 | 0.00 | 0.02 | 0.01 | 85 | |
| 20260507050329 | 46 | 82 | 0.0 | 0.0 | 0.00 | 0.02 | 0.01 | 85 | |
| 20260507045829 | 45 | 82 | 0.0 | 0.0 | 0.00 | 0.02 | 0.01 | 85 | |
| 20260507045329 | 45 | 82 | 0.0 | 0.0 | 0.00 | 0.02 | 0.01 | 85 | |
| 20260507044829 | 46 | 82 | 0.0 | 0.0 | 0.00 | 0.02 | 0.01 | 84 | |
| 20260507044329 | 45 | 82 | 0.0 | 1.7 | 0.00 | 0.02 | 0.01 | 84 | |
| 20260507043829 | 45 | 11 | 0.0 | 0.0 | 0.00 | 0.02 | 0.01 | 84 | |
| 20260507043329 | 46 | 11 | 0.0 | 0.0 | 0.00 | 0.02 | 0.01 | 84 | |
| 20260507042829 | 46 | 11 | 0.0 | 0.0 | 0.00 | 0.02 | 0.01 | 84 | |
| 20260507042329 | 46 | 11 | 0.0 | 0.0 | 0.00 | 0.02 | 0.01 | 83 | |
| 20260507041829 | 46 | 11 | 0.0 | 0.0 | 0.00 | 0.02 | 0.01 | 83 | |
| 20260507041329 | 46 | 11 | 0.0 | 0.0 | 0.00 | 0.02 | 0.01 | 83 | |
| 20260507040829 | 47 | 11 | 0.0 | 0.0 | 0.00 | 0.02 | 0.01 | 83 | |
| 20260507040329 | 47 | 11 | 0.0 | 1.7 | 0.00 | 0.02 | 0.01 | 82 | |
| 20260507035829 | 48 | 26 | 0.0 | 0.9 | 0.00 | 0.02 | 0.01 | 82 | |
| 20260507035329 | 47 | 47 | 0.0 | 0.0 | 0.00 | 0.02 | 0.01 | 82 | |
| 20260507034829 | 48 | 47 | 0.0 | 0.0 | 0.00 | 0.02 | 0.01 | 82 | |
| 20260507034329 | 49 | 47 | 0.0 | 0.0 | 0.00 | 0.02 | 0.01 | 82 | |
| 20260507033829 | 48 | 47 | 0.0 | 0.9 | 0.00 | 0.02 | 0.01 | 81 | |
| 20260507033329 | 49 | 88 | 0.0 | 1.7 | 0.00 | 0.02 | 0.01 | 81 | |
| 20260507032829 | 49 | 113 | 0.0 | 0.0 | 0.01 | 0.02 | 0.01 | 81 | |
| 20260507032329 | 49 | 113 | 0.0 | 0.0 | 0.01 | 0.02 | 0.01 | 81 | |
| 20260507031829 | 49 | 113 | 0.0 | 0.0 | 0.01 | 0.02 | 0.01 | 81 | |
| 20260507031329 | 49 | 113 | 0.0 | 0.0 | 0.01 | 0.02 | 0.01 | 81 | |
| 20260507030829 | 49 | 113 | 0.0 | 0.9 | 0.01 | 0.02 | 0.01 | 80 | |
| 20260507030329 | 49 | 53 | 0.0 | 1.7 | 0.01 | 0.02 | 0.01 | 80 | |
| 20260507025829 | 50 | 56 | 0.0 | 0.0 | 0.01 | 0.02 | 0.01 | 80 | |
| 20260507025329 | 49 | 56 | 0.0 | 1.7 | 0.01 | 0.02 | 0.01 | 80 | |
| 20260507024829 | 49 | 25 | 0.0 | 0.9 | 0.01 | 0.02 | 0.01 | 81 | |
| 20260507024329 | 49 | 47 | 0.0 | 0.0 | 0.01 | 0.02 | 0.01 | 81 | |
| 20260507023829 | 49 | 33 | 0.0 | 1.7 | 0.01 | 0.02 | 0.01 | 81 | |
| 20260507023329 | 50 | 2 | 0.0 | 0.0 | 0.01 | 0.02 | 0.01 | 82 | |
| 20260507022829 | 49 | 2 | 0.0 | 0.0 | 0.00 | 0.01 | 0.00 | 82 | |
| 20260507022329 | 49 | 2 | 0.0 | 0.0 | 0.00 | 0.01 | 0.00 | 82 | |
| 20260507021829 | 49 | 2 | 0.0 | 0.0 | 0.00 | 0.01 | 0.00 | 83 | |
| 20260507021329 | 49 | 2 | 0.0 | 0.0 | 0.00 | 0.01 | 0.00 | 83 | |
| 20260507020829 | 49 | 2 | 0.0 | 0.0 | 0.00 | 0.01 | 0.00 | 83 | |
| 20260507020329 | 49 | 2 | 0.0 | 0.0 | 0.00 | 0.01 | 0.00 | 83 | |
| 20260507015829 | 50 | 2 | 0.0 | 0.0 | 0.00 | 0.01 | 0.00 | 83 | |
| 20260507015329 | 50 | 2 | 0.0 | 0.0 | 0.00 | 0.01 | 0.00 | 83 | |
| 20260507014829 | 50 | 2 | 0.0 | 0.0 | 0.00 | 0.01 | 0.00 | 83 | |
| 20260507014329 | 50 | 2 | 0.0 | 0.0 | 0.00 | 0.01 | 0.00 | 83 | |
| 20260507013829 | 50 | 2 | 0.0 | 0.0 | 0.00 | 0.01 | 0.00 | 84 | |
| 20260507013329 | 50 | 2 | 0.0 | 0.0 | 0.00 | 0.01 | 0.00 | 84 | |
| 20260507012829 | 51 | 2 | 0.0 | 0.0 | 0.00 | 0.01 | 0.00 | 83 | |
| 20260507012329 | 50 | 2 | 0.0 | 0.0 | 0.00 | 0.01 | 0.00 | 83 | |
| 20260507011829 | 50 | 2 | 0.0 | 0.0 | 0.00 | 0.01 | 0.00 | 83 | |
| 20260507011329 | 51 | 2 | 0.0 | 0.0 | 0.00 | 0.01 | 0.00 | 83 | |
| 20260507010829 | 51 | 2 | 0.0 | 0.0 | 0.00 | 0.01 | 0.00 | 83 | |
| 20260507010329 | 51 | 2 | 0.0 | 0.0 | 0.00 | 0.01 | 0.00 | 83 | |
| 20260507005829 | 51 | 2 | 0.0 | 0.0 | 0.00 | 0.01 | 0.00 | 83 | |
| 20260507005329 | 50 | 2 | 0.0 | 0.0 | 0.00 | 0.01 | 0.00 | 83 | |
| 20260507004829 | 51 | 2 | 0.0 | 0.0 | 0.00 | 0.01 | 0.00 | 83 | |
| 20260507004329 | 51 | 2 | 0.0 | 0.0 | 0.00 | 0.01 | 0.00 | 83 | |
| 20260507003829 | 52 | 2 | 0.0 | 0.0 | 0.00 | 0.01 | 0.00 | 83 | |
| 20260507003329 | 51 | 2 | 0.0 | 0.0 | 0.00 | 0.01 | 0.00 | 82 | |
| 20260507002829 | 51 | 2 | 0.0 | 0.0 | 0.00 | 0.01 | 0.00 | 82 | |
| 20260507002329 | 51 | 2 | 0.0 | 0.0 | 0.00 | 0.01 | 0.00 | 82 | |
| 20260507001829 | 52 | 2 | 0.0 | 0.0 | 0.00 | 0.01 | 0.00 | 82 | |
| 20260507001329 | 51 | 2 | 0.0 | 0.0 | 0.00 | 0.01 | 0.00 | 82 | |
| 20260507000829 | 52 | 2 | 0.0 | 0.0 | 0.00 | 0.01 | 0.00 | 82 | |
| 20260507000329 | 52 | 2 | 0.0 | 0.0 | 0.00 | 0.01 | 0.00 | 82 | |
| 20260506235830 | 52 | 2 | 0.0 | 0.0 | 0.00 | 0.01 | 0.00 | 82 | |
| 20260506235330 | 52 | 2 | 0.0 | 0.0 | 0.00 | 0.01 | 0.00 | 82 | |
| 20260506234829 | 52 | 2 | 0.0 | 0.0 | 0.00 | 0.01 | 0.00 | 82 | |
| 20260506234330 | 52 | 2 | 0.0 | 0.0 | 0.00 | 0.01 | 0.00 | 81 | |
| 20260506233830 | 52 | 2 | 0.0 | 0.0 | 0.00 | 0.01 | 0.00 | 81 | |
| 20260506233330 | 52 | 2 | 0.0 | 0.0 | 0.00 | 0.01 | 0.00 | 81 | |
| 20260506232830 | 52 | 2 | 0.0 | 0.0 | 0.00 | 0.01 | 0.00 | 81 | |
| 20260506232330 | 52 | 2 | 0.0 | 0.0 | 0.00 | 0.01 | 0.00 | 81 | |
| 20260506231830 | 53 | 2 | 0.0 | 0.0 | 0.00 | 0.01 | 0.00 | 81 | |
| 20260506231330 | 52 | 2 | 0.0 | 0.0 | 0.00 | 0.01 | 0.00 | 80 | |
| 20260506230830 | 52 | 2 | 0.0 | 0.0 | 0.00 | 0.01 | 0.00 | 80 | |
| 20260506230330 | 52 | 2 | 0.0 | 0.0 | 0.00 | 0.01 | 0.00 | 80 | |
| 20260506225830 | 53 | 2 | 0.0 | 0.0 | 0.00 | 0.01 | 0.00 | 80 | |
| 20260506225330 | 53 | 2 | 0.0 | 0.0 | 0.00 | 0.01 | 0.00 | 80 | |
| 20260506224830 | 53 | 2 | 0.0 | 0.0 | 0.00 | 0.01 | 0.01 | 79 | |
| 20260506224330 | 53 | 2 | 0.0 | 0.0 | 0.00 | 0.01 | 0.01 | 79 | |
| 20260506223830 | 53 | 2 | 0.0 | 0.0 | 0.00 | 0.01 | 0.01 | 79 | |
| 20260506223330 | 52 | 2 | 0.0 | 0.0 | 0.00 | 0.01 | 0.01 | 79 | |
| 20260506222830 | 53 | 2 | 0.0 | 0.0 | 0.00 | 0.01 | 0.01 | 79 | |
| 20260506222330 | 53 | 2 | 0.0 | 0.0 | 0.00 | 0.01 | 0.01 | 80 | |
| 20260506221830 | 53 | 2 | 0.0 | 0.0 | 0.00 | 0.01 | 0.01 | 79 | |
| 20260506221330 | 53 | 2 | 0.0 | 0.0 | 0.00 | 0.01 | 0.01 | 79 | |
| 20260506220830 | 53 | 2 | 0.0 | 0.0 | 0.00 | 0.01 | 0.01 | 79 | |
| 20260506220330 | 53 | 2 | 0.0 | 0.0 | 0.00 | 0.01 | 0.01 | 79 | |
| 20260506215830 | 53 | 2 | 0.0 | 0.0 | 0.00 | 0.01 | 0.01 | 79 | |
| 20260506215330 | 52 | 2 | 0.0 | 0.0 | 0.00 | 0.01 | 0.01 | 79 | |
| 20260506214830 | 53 | 2 | 0.0 | 0.0 | 0.00 | 0.01 | 0.01 | 78 | |
| 20260506214330 | 54 | 2 | 0.0 | 0.0 | 0.00 | 0.01 | 0.01 | 78 | |
| 20260506213830 | 53 | 2 | 0.0 | 0.0 | 0.00 | 0.01 | 0.01 | 78 | |
| 20260506213330 | 53 | 2 | 0.0 | 0.0 | 0.00 | 0.01 | 0.01 | 78 | |
| 20260506212830 | 54 | 2 | 0.0 | 0.0 | 0.00 | 0.01 | 0.01 | 78 | |
| 20260506212330 | 54 | 2 | 0.0 | 0.0 | 0.00 | 0.01 | 0.01 | 78 | |
| 20260506211830 | 54 | 2 | 0.0 | 0.0 | 0.00 | 0.01 | 0.01 | 78 | |
| 20260506211330 | 54 | 2 | 0.0 | 0.0 | 0.00 | 0.01 | 0.01 | 78 | |
| 20260506210830 | 54 | 2 | 0.0 | 0.0 | 0.00 | 0.01 | 0.01 | 77 | |
| 20260506210330 | 54 | 2 | 0.0 | 0.0 | 0.00 | 0.01 | 0.01 | 77 | |
| 20260506205830 | 54 | 2 | 0.0 | 0.0 | 0.00 | 0.01 | 0.01 | 77 | |
| 20260506205330 | 54 | 2 | 0.0 | 0.0 | 0.00 | 0.01 | 0.01 | 77 | |
| 20260506204830 | 55 | 2 | 0.0 | 0.0 | 0.00 | 0.01 | 0.01 | 77 | |
| 20260506204330 | 54 | 2 | 0.0 | 0.9 | 0.00 | 0.01 | 0.01 | 76 | |
| 20260506203830 | 55 | 322 | 0.0 | 0.0 | 0.00 | 0.01 | 0.01 | 76 | |
| 20260506203330 | 54 | 322 | 0.0 | 0.0 | 0.00 | 0.01 | 0.01 | 76 | |
| 20260506202830 | 54 | 322 | 0.0 | 0.0 | 0.00 | 0.01 | 0.01 | 76 | |
| 20260506202330 | 55 | 322 | 0.0 | 0.0 | 0.00 | 0.01 | 0.01 | 75 | |
| 20260506201830 | 55 | 322 | 0.0 | 0.0 | 0.00 | 0.01 | 0.01 | 75 | |
| 20260506201330 | 55 | 322 | 0.0 | 0.0 | 0.00 | 0.01 | 0.01 | 75 | |
| 20260506200830 | 55 | 322 | 0.0 | 0.0 | 0.00 | 0.01 | 0.01 | 75 | |
| 20260506200330 | 55 | 322 | 0.0 | 0.0 | 0.00 | 0.01 | 0.01 | 74 | |
| 20260506195830 | 55 | 322 | 0.0 | 0.0 | 0.00 | 0.01 | 0.01 | 74 | |
| 20260506195330 | 56 | 322 | 0.0 | 0.0 | 0.00 | 0.01 | 0.01 | 74 | |
| 20260506194830 | 56 | 322 | 0.0 | 0.0 | 0.00 | 0.01 | 0.01 | 73 | |
| 20260506194330 | 55 | 322 | 0.0 | 0.0 | 0.00 | 0.01 | 0.01 | 73 | |
| 20260506193830 | 56 | 322 | 0.0 | 0.0 | 0.00 | 0.01 | 0.01 | 72 | |
| 20260506193330 | 56 | 322 | 0.0 | 0.0 | 0.00 | 0.01 | 0.01 | 72 | |
| 20260506192830 | 56 | 322 | 0.0 | 2.6 | 0.00 | 0.01 | 0.01 | 71 | |
| 20260506192330 | 57 | 347 | 0.0 | 1.7 | 0.00 | 0.01 | 0.01 | 71 | |
| 20260506191830 | 57 | 305 | 0.0 | 0.0 | 0.00 | 0.01 | 0.01 | 70 | |
| 20260506191330 | 58 | 306 | 0.0 | 0.0 | 0.00 | 0.01 | 0.01 | 70 | |
| 20260506190830 | 58 | 306 | 0.0 | 0.0 | 0.00 | 0.01 | 0.01 | 69 | |
| 20260506190330 | 58 | 306 | 0.0 | 2.6 | 0.00 | 0.01 | 0.01 | 68 | |
| 20260506185830 | 58 | 345 | 0.9 | 0.9 | 0.00 | 0.01 | 0.01 | 67 | |
| 20260506185330 | 58 | 320 | 0.0 | 2.6 | 0.00 | 0.01 | 0.01 | 66 | |
| 20260506184830 | 58 | 326 | 0.0 | 1.7 | 0.00 | 0.01 | 0.01 | 66 | |
| 20260506184330 | 59 | 316 | 0.0 | 0.9 | 0.00 | 0.01 | 0.01 | 66 | |
| 20260506183830 | 58 | 344 | 0.0 | 0.0 | 0.00 | 0.01 | 0.01 | 66 | |
| 20260506183330 | 58 | 344 | 0.0 | 1.7 | 0.00 | 0.01 | 0.01 | 65 | |
| 20260506182830 | 60 | 320 | 0.0 | 2.6 | 0.00 | 0.01 | 0.01 | 65 | |
| 20260506182330 | 60 | 309 | 0.0 | 2.6 | 0.00 | 0.01 | 0.01 | 65 | |
| 20260506181830 | 59 | 270 | 0.0 | 1.7 | 0.00 | 0.01 | 0.01 | 64 | |
| 20260506181330 | 59 | 341 | 0.0 | 1.7 | 0.00 | 0.01 | 0.01 | 63 | |
| 20260506180830 | 59 | 348 | 1.7 | 1.7 | 0.00 | 0.01 | 0.01 | 64 | |
| 20260506180330 | 60 | 258 | 0.0 | 3.5 | 0.00 | 0.01 | 0.01 | 63 | |
| 20260506175830 | 60 | 293 | 0.0 | 1.7 | 0.00 | 0.01 | 0.01 | 63 | |
| 20260506175330 | 60 | 293 | 0.0 | 2.6 | 0.00 | 0.01 | 0.01 | 63 | |
| 20260506174830 | 60 | 338 | 0.0 | 0.9 | 0.00 | 0.01 | 0.01 | 62 | |
| 20260506174330 | 61 | 278 | 0.9 | 3.5 | 0.00 | 0.01 | 0.01 | 62 | |
| 20260506173830 | 61 | 341 | 0.0 | 3.5 | 0.00 | 0.01 | 0.01 | 60 | |
| 20260506173330 | 61 | 298 | 0.9 | 0.9 | 0.00 | 0.01 | 0.01 | 59 | |
| 20260506172830 | 62 | 319 | 0.0 | 0.9 | 0.00 | 0.01 | 0.01 | 58 | |
| 20260506172330 | 62 | 23 | 0.0 | 0.9 | 0.00 | 0.01 | 0.01 | 58 | |
| 20260506171830 | 62 | 23 | 0.0 | 0.0 | 0.00 | 0.01 | 0.01 | 58 | |
| 20260506171330 | 62 | 23 | 0.0 | 0.0 | 0.00 | 0.01 | 0.01 | 56 | |
| 20260506170830 | 62 | 23 | 0.0 | 0.0 | 0.00 | 0.01 | 0.01 | 56 | |
| 20260506170330 | 62 | 23 | 0.0 | 3.5 | 0.00 | 0.01 | 0.01 | 55 | |
| 20260506165830 | 63 | 56 | 2.6 | 4.3 | 0.00 | 0.01 | 0.01 | 55 | |
| 20260506165330 | 63 | 354 | 0.0 | 0.9 | 0.00 | 0.01 | 0.01 | 55 | |
| 20260506164830 | 64 | 348 | 0.0 | 0.0 | 0.00 | 0.01 | 0.01 | 53 | |
| 20260506164330 | 63 | 348 | 0.0 | 0.0 | 0.00 | 0.01 | 0.01 | 55 | |
| 20260506163830 | 63 | 108 | 0.0 | 0.9 | 0.00 | 0.02 | 0.01 | 54 | |
| 20260506163330 | 63 | 47 | 0.0 | 1.7 | 0.00 | 0.02 | 0.01 | 55 | |
| 20260506162830 | 64 | 78 | 1.7 | 2.6 | 0.00 | 0.02 | 0.01 | 53 | |
| 20260506162330 | 64 | 341 | 0.9 | 3.5 | 0.00 | 0.02 | 0.01 | 53 | |
| 20260506161830 | 64 | 54 | 2.6 | 2.6 | 0.00 | 0.02 | 0.01 | 52 | |
| 20260506161330 | 64 | 315 | 0.0 | 0.0 | 0.00 | 0.02 | 0.01 | 54 | |
| 20260506160830 | 63 | 315 | 0.0 | 4.3 | 0.00 | 0.02 | 0.01 | 55 | |
| 20260506160330 | 63 | 85 | 4.3 | 4.3 | 0.00 | 0.02 | 0.01 | 52 | |
| 20260506155830 | 63 | 23 | 0.0 | 5.2 | 0.00 | 0.02 | 0.01 | 52 | |
| 20260506155330 | 64 | 64 | 0.0 | 2.6 | 0.00 | 0.02 | 0.01 | 53 | |
| 20260506154830 | 65 | 45 | 0.0 | 4.3 | 0.00 | 0.02 | 0.01 | 52 | |
| 20260506154330 | 63 | 88 | 2.6 | 5.2 | 0.00 | 0.02 | 0.01 | 53 | |
| 20260506153830 | 65 | 284 | 0.0 | 1.7 | 0.00 | 0.02 | 0.01 | 52 | |
| 20260506153330 | 65 | 327 | 0.9 | 6.1 | 0.00 | 0.02 | 0.01 | 51 | |
| 20260506152830 | 66 | 87 | 2.6 | 4.3 | 0.00 | 0.02 | 0.01 | 51 | |
| 20260506152330 | 67 | 33 | 0.0 | 2.6 | 0.00 | 0.02 | 0.01 | 52 | |
| 20260506151830 | 67 | 85 | 0.9 | 1.7 | 0.00 | 0.02 | 0.01 | 52 | |
| 20260506151330 | 67 | 25 | 0.0 | 2.6 | 0.00 | 0.02 | 0.01 | 51 | |
| 20260506150830 | 66 | 357 | 0.0 | 3.5 | 0.00 | 0.02 | 0.01 | 51 | |
| 20260506150330 | 67 | 344 | 0.9 | 5.2 | 0.00 | 0.02 | 0.01 | 50 | |
| 20260506145830 | 68 | 338 | 0.0 | 2.6 | 0.00 | 0.02 | 0.01 | 52 | |
| 20260506145330 | 69 | 1 | 0.0 | 3.5 | 0.00 | 0.02 | 0.01 | 51 | |
| 20260506144830 | 69 | 352 | 1.7 | 7.0 | 0.00 | 0.02 | 0.01 | 55 | |
| 20260506144330 | 69 | 298 | 0.0 | 4.3 | 0.00 | 0.02 | 0.01 | 55 | |
| 20260506143830 | 69 | 324 | 0.0 | 6.1 | 0.00 | 0.02 | 0.01 | 53 | |
| 20260506143330 | 68 | 77 | 0.0 | 4.3 | 0.00 | 0.02 | 0.01 | 54 | |
| 20260506142830 | 68 | 307 | 0.0 | 3.5 | 0.00 | 0.02 | 0.01 | 56 | |
| 20260506142330 | 67 | 357 | 0.0 | 3.5 | 0.00 | 0.02 | 0.01 | 55 | |
| 20260506141830 | 67 | 338 | 0.0 | 1.7 | 0.00 | 0.02 | 0.01 | 56 | |
| 20260506141330 | 66 | 267 | 0.0 | 2.6 | 0.00 | 0.02 | 0.01 | 56 | |
| 20260506140830 | 66 | 8 | 2.6 | 3.5 | 0.00 | 0.02 | 0.01 | 57 | |
| 20260506140330 | 66 | 82 | 0.9 | 5.2 | 0.00 | 0.02 | 0.01 | 56 | |
| 20260506135830 | 65 | 1 | 0.0 | 3.5 | 0.00 | 0.02 | 0.01 | 58 | |
| 20260506135330 | 65 | 94 | 0.0 | 0.9 | 0.00 | 0.02 | 0.01 | 59 | |
| 20260506134830 | 63 | 40 | 0.0 | 5.2 | 0.00 | 0.02 | 0.01 | 59 | |
| 20260506134330 | 64 | 18 | 0.9 | 2.6 | 0.00 | 0.02 | 0.01 | 60 | |
| 20260506133830 | 65 | 85 | 0.0 | 3.5 | 0.00 | 0.02 | 0.01 | 61 | |
| 20260506133330 | 65 | 330 | 0.0 | 2.6 | 0.00 | 0.02 | 0.01 | 61 | |
| 20260506132830 | 65 | 275 | 0.0 | 4.3 | 0.00 | 0.02 | 0.01 | 62 |